Time,TemperatureF,DewpointF,PressureIn,WindDirection,WindDirectionDegrees,WindSpeedMPH,WindSpeedGustMPH,Humidity,HourlyPrecipIn,Conditions,Clouds,dailyrainin,SolarRadiationWatts/m^2,SoftwareType,DateUTC
2014-01-15 00:08:00,39.4,-99.9,20.00,SW,224,0.0,0.0,255,0.00,,,0.00,0,Wunderground v.1.15,2014-01-15 08:08:00,
2014-01-15 00:18:00,40.9,-99.9,20.00,SW,224,0.0,0.0,255,0.00,,,0.00,0,Wunderground v.1.15,2014-01-15 08:18:00,
2014-01-15 00:28:00,40.3,-99.9,20.00,SW,224,0.0,0.0,255,0.00,,,0.00,0,Wunderground v.1.15,2014-01-15 08:28:00,
2014-01-15 00:38:00,39.9,-99.9,20.00,SW,224,0.0,0.0,255,0.00,,,0.00,0,Wunderground v.1.15,2014-01-15 08:38:00,
2014-01-15 00:48:00,38.9,-99.9,20.00,SW,224,0.0,0.0,255,0.00,,,0.00,0,Wunderground v.1.15,2014-01-15 08:48:00,
2014-01-15 00:59:00,39.8,-99.9,20.00,SW,224,0.0,0.0,255,0.00,,,0.00,0,Wunderground v.1.15,2014-01-15 08:59:00,
2014-01-15 01:08:00,39.1,-99.9,20.00,SW,224,0.0,0.0,255,0.00,,,0.00,0,Wunderground v.1.15,2014-01-15 09:08:00,
2014-01-15 01:18:00,38.1,-99.9,20.00,SW,224,0.0,0.0,255,0.00,,,0.00,0,Wunderground v.1.15,2014-01-15 09:18:00,
2014-01-15 01:28:00,40.2,-99.9,20.00,SW,224,0.0,0.0,255,0.00,,,0.00,0,Wunderground v.1.15,2014-01-15 09:28:00,
2014-01-15 01:38:00,39.5,-99.9,20.00,SW,224,0.0,0.0,255,0.00,,,0.00,0,Wunderground v.1.15,2014-01-15 09:38:00,
2014-01-15 01:48:00,40.4,-99.9,20.00,SW,224,0.0,0.0,255,0.00,,,0.00,0,Wunderground v.1.15,2014-01-15 09:48:00,
2014-01-15 01:59:00,39.4,-99.9,20.00,SW,224,0.0,0.0,255,0.00,,,0.00,0,Wunderground v.1.15,2014-01-15 09:59:00,
2014-01-15 02:08:00,39.2,-99.9,20.00,SW,224,0.0,0.0,255,0.00,,,0.00,0,Wunderground v.1.15,2014-01-15 10:08:00,
2014-01-15 02:13:00,39.1,-99.9,20.00,SW,224,4.0,4.0,255,0.00,,,0.00,0,Wunderground v.1.15,2014-01-15 10:13:00,
2014-01-15 02:23:00,38.5,-99.9,20.00,SW,224,0.0,0.0,255,0.00,,,0.00,0,Wunderground v.1.15,2014-01-15 10:23:00,
2014-01-15 02:33:00,37.1,-99.9,20.00,SW,224,3.0,3.0,255,0.00,,,0.00,0,Wunderground v.1.15,2014-01-15 10:33:00,
2014-01-15 02:43:00,37.9,-99.9,20.00,WSW,239,3.0,3.0,255,0.00,,,0.00,0,Wunderground v.1.15,2014-01-15 10:43:00,
2014-01-15 02:53:00,37.9,-99.9,20.00,WSW,239,2.0,2.0,255,0.00,,,0.00,0,Wunderground v.1.15,2014-01-15 10:53:00,
2014-01-15 02:59:00,38.4,-99.9,20.00,WSW,239,0.0,0.0,255,0.00,,,0.00,0,Wunderground v.1.15,2014-01-15 10:59:00,
2014-01-15 03:08:00,39.2,-99.9,20.00,WSW,239,0.0,0.0,255,0.00,,,0.00,0,Wunderground v.1.15,2014-01-15 11:08:00,
2014-01-15 03:18:00,39.9,-99.9,20.00,WSW,239,0.0,0.0,255,0.00,,,0.00,0,Wunderground v.1.15,2014-01-15 11:18:00,
2014-01-15 03:23:00,39.7,-99.9,20.00,WSW,239,0.0,0.0,255,0.00,,,0.00,0,Wunderground v.1.15,2014-01-15 11:23:00,
2014-01-15 03:33:00,38.8,-99.9,20.00,WSW,239,2.0,2.0,255,0.00,,,0.00,0,Wunderground v.1.15,2014-01-15 11:33:00,
2014-01-15 03:43:00,38.3,-99.9,20.00,WSW,237,3.0,4.0,255,0.00,,,0.00,0,Wunderground v.1.15,2014-01-15 11:43:00,
2014-01-15 03:53:00,37.6,-99.9,20.00,SW,235,4.0,4.0,255,0.00,,,0.00,0,Wunderground v.1.15,2014-01-15 11:53:00,
2014-01-15 03:59:00,37.1,-99.9,20.00,SW,224,5.0,5.0,255,0.00,,,0.00,0,Wunderground v.1.15,2014-01-15 11:59:00,
2014-01-15 04:08:00,36.7,-99.9,20.00,SSW,213,4.0,4.0,255,0.00,,,0.00,0,Wunderground v.1.15,2014-01-15 12:08:00,
2014-01-15 04:18:00,36.4,-99.9,20.00,South,190,4.0,4.0,255,0.00,,,0.00,0,Wunderground v.1.15,2014-01-15 12:18:00,
2014-01-15 04:28:00,36.3,-99.9,20.00,South,190,3.0,3.0,255,0.00,,,0.00,0,Wunderground v.1.15,2014-01-15 12:28:00,
2014-01-15 04:38:00,36.6,-99.9,20.00,South,190,3.0,3.0,255,0.00,,,0.00,0,Wunderground v.1.15,2014-01-15 12:38:00,
2014-01-15 04:43:00,37.0,-99.9,20.00,South,190,0.0,3.0,255,0.00,,,0.00,0,Wunderground v.1.15,2014-01-15 12:43:00,
2014-01-15 04:53:00,37.2,-99.9,20.00,South,190,1.0,1.0,255,0.00,,,0.00,0,Wunderground v.1.15,2014-01-15 12:53:00,
2014-01-15 04:58:00,37.3,-99.9,20.00,South,190,0.0,0.0,255,0.00,,,0.00,0,Wunderground v.1.15,2014-01-15 12:58:00,
2014-01-15 05:08:00,36.8,-99.9,20.00,South,190,0.0,0.0,255,0.00,,,0.00,0,Wunderground v.1.15,2014-01-15 13:08:00,
2014-01-15 05:13:00,37.0,-99.9,20.00,South,190,0.0,0.0,255,0.00,,,0.00,0,Wunderground v.1.15,2014-01-15 13:13:00,
2014-01-15 05:23:00,35.7,-99.9,20.00,South,190,0.0,3.0,255,0.00,,,0.00,0,Wunderground v.1.15,2014-01-15 13:23:00,
2014-01-15 05:33:00,35.7,-99.9,20.00,South,190,1.0,1.0,255,0.00,,,0.00,0,Wunderground v.1.15,2014-01-15 13:33:00,
2014-01-15 05:38:00,35.7,-99.9,20.00,South,190,0.0,0.0,255,0.00,,,0.00,0,Wunderground v.1.15,2014-01-15 13:38:00,
2014-01-15 05:48:00,35.8,-99.9,20.00,South,190,0.0,0.0,255,0.00,,,0.00,0,Wunderground v.1.15,2014-01-15 13:48:00,
2014-01-15 05:59:00,36.2,-99.9,20.00,South,190,0.0,0.0,255,0.00,,,0.00,0,Wunderground v.1.15,2014-01-15 13:59:00,
2014-01-15 06:08:00,35.8,-99.9,20.00,South,190,0.0,0.0,255,0.00,,,0.00,0,Wunderground v.1.15,2014-01-15 14:08:00,
2014-01-15 06:13:00,35.6,-99.9,20.00,South,190,0.0,0.0,255,0.00,,,0.00,0,Wunderground v.1.15,2014-01-15 14:13:00,
2014-01-15 06:23:00,35.2,-99.9,20.00,South,190,3.0,3.0,255,0.00,,,0.00,0,Wunderground v.1.15,2014-01-15 14:23:00,
2014-01-15 06:33:00,34.3,-99.9,20.00,South,190,2.0,2.0,255,0.00,,,0.00,0,Wunderground v.1.15,2014-01-15 14:33:00,
2014-01-15 06:43:00,34.4,-99.9,20.00,South,190,2.0,2.0,255,0.00,,,0.00,0,Wunderground v.1.15,2014-01-15 14:43:00,
2014-01-15 06:53:00,34.5,-99.9,20.00,South,190,0.0,2.0,255,0.00,,,0.00,0,Wunderground v.1.15,2014-01-15 14:53:00,
2014-01-15 06:59:00,35.2,-99.9,20.00,South,190,0.0,0.0,255,0.00,,,0.00,0,Wunderground v.1.15,2014-01-15 14:59:00,
2014-01-15 07:08:00,35.3,-99.9,20.00,South,190,3.0,3.0,255,0.00,,,0.00,0,Wunderground v.1.15,2014-01-15 15:08:00,
2014-01-15 07:18:00,35.2,-99.9,20.00,SW,220,2.0,2.0,255,0.00,,,0.00,0,Wunderground v.1.15,2014-01-15 15:18:00,
2014-01-15 07:28:00,35.4,-99.9,20.00,SW,220,0.0,0.0,255,0.00,,,0.00,0,Wunderground v.1.15,2014-01-15 15:28:00,
2014-01-15 07:38:00,36.0,-99.9,20.00,SW,220,0.0,0.0,255,0.00,,,0.00,0,Wunderground v.1.15,2014-01-15 15:38:00,
2014-01-15 07:48:00,35.2,-99.9,20.00,SW,220,0.0,0.0,255,0.00,,,0.00,0,Wunderground v.1.15,2014-01-15 15:48:00,
2014-01-15 07:59:00,35.8,-99.9,20.00,SW,221,3.0,3.0,255,0.00,,,0.00,0,Wunderground v.1.15,2014-01-15 15:59:00,
2014-01-15 08:08:00,35.7,-99.9,20.00,SW,220,1.0,1.0,255,0.00,,,0.00,0,Wunderground v.1.15,2014-01-15 16:08:00,
2014-01-15 08:18:00,35.9,-99.9,20.00,SW,220,0.0,0.0,255,0.00,,,0.00,0,Wunderground v.1.15,2014-01-15 16:18:00,
2014-01-15 08:23:00,36.4,-99.9,20.00,SW,220,0.0,0.0,255,0.00,,,0.00,0,Wunderground v.1.15,2014-01-15 16:23:00,
2014-01-15 08:33:00,36.2,-99.9,20.00,SW,220,1.0,1.0,255,0.00,,,0.00,0,Wunderground v.1.15,2014-01-15 16:33:00,
2014-01-15 08:43:00,35.9,-99.9,20.00,SW,221,2.0,2.0,255,0.00,,,0.00,0,Wunderground v.1.15,2014-01-15 16:43:00,
2014-01-15 08:53:00,38.1,-99.9,20.00,SW,220,0.0,0.0,255,0.00,,,0.00,0,Wunderground v.1.15,2014-01-15 16:53:00,
2014-01-15 08:58:00,38.4,-99.9,20.00,SW,221,2.0,2.0,255,0.00,,,0.00,0,Wunderground v.1.15,2014-01-15 16:58:00,
2014-01-15 09:08:00,38.2,-99.9,20.00,SW,220,0.0,0.0,255,0.00,,,0.00,0,Wunderground v.1.15,2014-01-15 17:08:00,
2014-01-15 09:18:00,38.2,-99.9,20.00,SW,220,3.0,3.0,255,0.00,,,0.00,0,Wunderground v.1.15,2014-01-15 17:18:00,
2014-01-15 09:28:00,38.1,-99.9,20.00,SW,220,0.0,0.0,255,0.00,,,0.00,0,Wunderground v.1.15,2014-01-15 17:28:00,
2014-01-15 09:38:00,37.8,-99.9,20.00,SW,220,3.0,3.0,255,0.00,,,0.00,0,Wunderground v.1.15,2014-01-15 17:38:00,
2014-01-15 09:43:00,38.4,-99.9,20.00,SW,220,1.0,3.0,255,0.00,,,0.00,0,Wunderground v.1.15,2014-01-15 17:43:00,
2014-01-15 09:53:00,39.3,-99.9,20.00,SW,220,0.0,0.0,255,0.00,,,0.00,0,Wunderground v.1.15,2014-01-15 17:53:00,
2014-01-15 09:58:00,40.6,-99.9,20.00,SW,220,2.0,2.0,255,0.00,,,0.00,0,Wunderground v.1.15,2014-01-15 17:58:00,
2014-01-15 10:08:00,41.2,-99.9,20.00,SW,220,3.0,3.0,255,0.00,,,0.00,0,Wunderground v.1.15,2014-01-15 18:08:00,
2014-01-15 10:13:00,41.2,-99.9,20.00,SW,220,3.0,3.0,255,0.00,,,0.00,0,Wunderground v.1.15,2014-01-15 18:13:00,
2014-01-15 10:23:00,42.5,-99.9,20.00,SW,221,0.0,2.0,255,0.00,,,0.00,0,Wunderground v.1.15,2014-01-15 18:23:00,
2014-01-15 10:33:00,42.6,-99.9,20.00,SW,221,2.0,2.0,255,0.00,,,0.00,0,Wunderground v.1.15,2014-01-15 18:33:00,
2014-01-15 10:38:00,43.3,-99.9,20.00,SW,221,0.0,0.0,255,0.00,,,0.00,0,Wunderground v.1.15,2014-01-15 18:38:00,
2014-01-15 10:48:00,42.6,-99.9,20.00,SW,221,2.0,2.0,255,0.00,,,0.00,0,Wunderground v.1.15,2014-01-15 18:48:00,
2014-01-15 10:59:00,43.1,-99.9,20.00,SW,221,0.0,0.0,255,0.00,,,0.00,0,Wunderground v.1.15,2014-01-15 18:59:00,
2014-01-15 11:08:00,42.7,-99.9,20.00,SW,221,0.0,0.0,255,0.00,,,0.00,0,Wunderground v.1.15,2014-01-15 19:08:00,
2014-01-15 11:13:00,43.1,-99.9,20.00,SW,221,0.0,0.0,255,0.00,,,0.00,0,Wunderground v.1.15,2014-01-15 19:13:00,
2014-01-15 11:23:00,41.4,-99.9,20.00,SW,221,0.0,2.0,255,0.00,,,0.00,0,Wunderground v.1.15,2014-01-15 19:23:00,
2014-01-15 11:33:00,44.6,-99.9,20.00,SW,221,1.0,1.0,255,0.00,,,0.00,0,Wunderground v.1.15,2014-01-15 19:33:00,
2014-01-15 11:43:00,44.2,-99.9,20.00,SW,221,3.0,4.0,255,0.00,,,0.00,0,Wunderground v.1.15,2014-01-15 19:43:00,
2014-01-15 11:53:00,43.7,-99.9,20.00,SW,220,2.0,2.0,255,0.00,,,0.00,0,Wunderground v.1.15,2014-01-15 19:53:00,
2014-01-15 11:59:00,43.1,-99.9,20.00,SW,220,1.0,1.0,255,0.00,,,0.00,0,Wunderground v.1.15,2014-01-15 19:59:00,
2014-01-15 12:08:00,44.0,-99.9,20.00,SW,220,0.0,0.0,255,0.00,,,0.00,0,Wunderground v.1.15,2014-01-15 20:08:00,
2014-01-15 12:18:00,44.5,-99.9,20.00,SW,220,0.0,0.0,255,0.00,,,0.00,0,Wunderground v.1.15,2014-01-15 20:18:00,
2014-01-15 12:28:00,41.9,-99.9,20.00,SW,220,4.0,4.0,255,0.00,,,0.00,0,Wunderground v.1.15,2014-01-15 20:28:00,
2014-01-15 12:38:00,41.4,-99.9,20.00,SW,220,0.0,0.0,255,0.00,,,0.00,0,Wunderground v.1.15,2014-01-15 20:38:00,
2014-01-15 12:48:00,40.6,-99.9,20.00,SW,220,6.0,6.0,255,0.00,,,0.00,0,Wunderground v.1.15,2014-01-15 20:48:00,
2014-01-15 12:59:00,41.3,-99.9,20.00,SW,218,3.0,3.0,255,0.00,,,0.00,0,Wunderground v.1.15,2014-01-15 20:59:00,
2014-01-15 13:08:00,41.3,-99.9,20.00,SW,217,4.0,4.0,255,0.00,,,0.00,0,Wunderground v.1.15,2014-01-15 21:08:00,
2014-01-15 13:18:00,41.8,-99.9,20.00,SW,217,4.0,4.0,255,0.00,,,0.00,0,Wunderground v.1.15,2014-01-15 21:18:00,
2014-01-15 13:23:00,42.0,-99.9,20.00,SW,217,3.0,4.0,255,0.00,,,0.00,0,Wunderground v.1.15,2014-01-15 21:23:00,
2014-01-15 13:33:00,41.6,-99.9,20.00,SW,217,1.0,1.0,255,0.00,,,0.00,0,Wunderground v.1.15,2014-01-15 21:33:00,
2014-01-15 13:43:00,40.2,-99.9,20.00,SW,217,3.0,4.0,255,0.00,,,0.00,0,Wunderground v.1.15,2014-01-15 21:43:00,
2014-01-15 13:53:00,39.6,-99.9,20.00,SW,217,5.0,5.0,255,0.00,,,0.00,0,Wunderground v.1.15,2014-01-15 21:53:00,
2014-01-15 13:59:00,39.7,-99.9,20.00,SW,217,4.0,4.0,255,0.00,,,0.00,0,Wunderground v.1.15,2014-01-15 21:59:00,
2014-01-15 14:08:00,41.1,-99.9,20.00,SW,217,1.0,1.0,255,0.00,,,0.00,0,Wunderground v.1.15,2014-01-15 22:08:00,
2014-01-15 14:18:00,41.7,-99.9,20.00,SW,217,0.0,0.0,255,0.00,,,0.00,0,Wunderground v.1.15,2014-01-15 22:18:00,
2014-01-15 14:28:00,41.5,-99.9,20.00,SW,217,2.0,2.0,255,0.00,,,0.00,0,Wunderground v.1.15,2014-01-15 22:28:00,
2014-01-15 14:38:00,41.9,-99.9,20.00,SW,217,0.0,0.0,255,0.00,,,0.00,0,Wunderground v.1.15,2014-01-15 22:38:00,
2014-01-15 14:48:00,41.7,-99.9,20.00,SW,217,0.0,0.0,255,0.00,,,0.00,0,Wunderground v.1.15,2014-01-15 22:48:00,
2014-01-15 14:53:00,43.2,-99.9,20.00,SW,217,3.0,3.0,255,0.00,,,0.00,0,Wunderground v.1.15,2014-01-15 22:53:00,
2014-01-15 14:59:00,43.0,-99.9,20.00,SW,217,2.0,2.0,255,0.00,,,0.00,0,Wunderground v.1.15,2014-01-15 22:59:00,
2014-01-15 15:08:00,41.3,-99.9,20.00,SW,217,0.0,0.0,255,0.00,,,0.00,0,Wunderground v.1.15,2014-01-15 23:08:00,
2014-01-15 15:18:00,41.5,-99.9,20.00,SW,217,0.0,0.0,255,0.00,,,0.00,0,Wunderground v.1.15,2014-01-15 23:18:00,
2014-01-15 15:28:00,40.3,-99.9,20.00,SW,227,4.0,4.0,255,0.00,,,0.00,0,Wunderground v.1.15,2014-01-15 23:28:00,
2014-01-15 15:38:00,39.6,-99.9,20.00,SW,224,2.0,2.0,255,0.00,,,0.00,0,Wunderground v.1.15,2014-01-15 23:38:00,
2014-01-15 15:48:00,39.1,-99.9,20.00,SW,224,5.0,5.0,255,0.00,,,0.00,0,Wunderground v.1.15,2014-01-15 23:48:00,
2014-01-15 15:59:00,38.7,-99.9,20.00,SW,224,5.0,5.0,255,0.00,,,0.00,0,Wunderground v.1.15,2014-01-15 23:59:00,
2014-01-15 16:08:00,38.8,-99.9,20.00,SW,220,6.0,6.0,255,0.00,,,0.00,0,Wunderground v.1.15,2014-01-16 00:08:00,
2014-01-15 16:18:00,38.1,-99.9,20.00,SW,214,5.0,5.0,255,0.00,,,0.00,0,Wunderground v.1.15,2014-01-16 00:18:00,
2014-01-15 16:28:00,37.9,-99.9,20.00,SSW,212,6.0,6.0,255,0.00,,,0.00,0,Wunderground v.1.15,2014-01-16 00:28:00,
2014-01-15 16:38:00,37.7,-99.9,20.00,SSW,212,4.0,4.0,255,0.00,,,0.00,0,Wunderground v.1.15,2014-01-16 00:38:00,
2014-01-15 16:48:00,37.4,-99.9,20.00,SSW,212,0.0,0.0,255,0.00,,,0.00,0,Wunderground v.1.15,2014-01-16 00:48:00,
2014-01-15 16:59:00,37.9,-99.9,20.00,SSW,212,1.0,1.0,255,0.00,,,0.00,0,Wunderground v.1.15,2014-01-16 00:59:00,
2014-01-15 17:08:00,37.5,-99.9,20.00,SSW,212,2.0,2.0,255,0.00,,,0.00,0,Wunderground v.1.15,2014-01-16 01:08:00,
2014-01-15 17:18:00,37.3,-99.9,20.00,SSW,212,3.0,3.0,255,0.00,,,0.00,0,Wunderground v.1.15,2014-01-16 01:18:00,
2014-01-15 17:23:00,36.8,-99.9,20.00,SSW,212,2.0,3.0,255,0.00,,,0.00,0,Wunderground v.1.15,2014-01-16 01:23:00,
2014-01-15 17:33:00,36.4,-99.9,20.00,SSW,212,3.0,3.0,255,0.00,,,0.00,0,Wunderground v.1.15,2014-01-16 01:33:00,
2014-01-15 17:43:00,36.3,-99.9,20.00,SSW,212,0.0,2.0,255,0.00,,,0.00,0,Wunderground v.1.15,2014-01-16 01:43:00,
2014-01-15 17:53:00,37.8,-99.9,20.00,SSW,212,0.0,0.0,255,0.00,,,0.00,0,Wunderground v.1.15,2014-01-16 01:53:00,
2014-01-15 17:58:00,37.6,-99.9,20.00,SSW,212,0.0,0.0,255,0.00,,,0.00,0,Wunderground v.1.15,2014-01-16 01:58:00,
2014-01-15 18:08:00,36.3,-99.9,20.00,SSW,212,0.0,0.0,255,0.00,,,0.00,0,Wunderground v.1.15,2014-01-16 02:08:00,
2014-01-15 18:13:00,37.0,-99.9,20.00,SSW,212,0.0,0.0,255,0.00,,,0.00,0,Wunderground v.1.15,2014-01-16 02:13:00,
2014-01-15 18:23:00,36.2,-99.9,20.00,SSW,212,0.0,0.0,255,0.00,,,0.00,0,Wunderground v.1.15,2014-01-16 02:23:00,
2014-01-15 18:33:00,35.9,-99.9,20.00,SSW,212,0.0,0.0,255,0.00,,,0.00,0,Wunderground v.1.15,2014-01-16 02:33:00,
2014-01-15 18:38:00,33.8,-99.9,20.00,SSW,212,0.0,0.0,255,0.00,,,0.00,0,Wunderground v.1.15,2014-01-16 02:38:00,
2014-01-15 18:48:00,35.5,-99.9,20.00,SSW,212,0.0,0.0,255,0.00,,,0.00,0,Wunderground v.1.15,2014-01-16 02:48:00,
2014-01-15 18:59:00,35.5,-99.9,20.00,SSW,212,0.0,0.0,255,0.00,,,0.00,0,Wunderground v.1.15,2014-01-16 02:59:00,
2014-01-15 19:08:00,35.8,-99.9,20.00,SSW,212,0.0,0.0,255,0.00,,,0.00,0,Wunderground v.1.15,2014-01-16 03:08:00,
2014-01-15 19:13:00,36.0,-99.9,20.00,SSW,212,0.0,0.0,255,0.00,,,0.00,0,Wunderground v.1.15,2014-01-16 03:13:00,
2014-01-15 19:23:00,32.5,-99.9,20.00,SSW,212,0.0,0.0,255,0.00,,,0.00,0,Wunderground v.1.15,2014-01-16 03:23:00,
2014-01-15 19:33:00,32.1,-99.9,20.00,SSW,212,0.0,0.0,255,0.00,,,0.00,0,Wunderground v.1.15,2014-01-16 03:33:00,
2014-01-15 19:38:00,33.0,-99.9,20.00,SSW,212,0.0,0.0,255,0.00,,,0.00,0,Wunderground v.1.15,2014-01-16 03:38:00,
2014-01-15 19:48:00,35.1,-99.9,20.00,SSW,212,0.0,0.0,255,0.00,,,0.00,0,Wunderground v.1.15,2014-01-16 03:48:00,
2014-01-15 19:59:00,32.6,-99.9,20.00,SSW,212,0.0,0.0,255,0.00,,,0.00,0,Wunderground v.1.15,2014-01-16 03:59:00,
2014-01-15 20:08:00,31.4,-99.9,20.00,SSW,212,0.0,0.0,255,0.00,,,0.00,0,Wunderground v.1.15,2014-01-16 04:08:00,
2014-01-15 20:13:00,34.6,-99.9,20.00,SSW,212,0.0,0.0,255,0.00,,,0.00,0,Wunderground v.1.15,2014-01-16 04:13:00,
2014-01-15 20:23:00,34.1,-99.9,20.00,SSW,212,0.0,0.0,255,0.00,,,0.00,0,Wunderground v.1.15,2014-01-16 04:23:00,
2014-01-15 20:33:00,35.3,-99.9,20.00,SSW,212,0.0,0.0,255,0.00,,,0.00,0,Wunderground v.1.15,2014-01-16 04:33:00,
2014-01-15 20:43:00,35.9,-99.9,20.00,SSW,212,1.0,1.0,255,0.00,,,0.00,0,Wunderground v.1.15,2014-01-16 04:43:00,
2014-01-15 20:53:00,34.9,-99.9,20.00,SSW,212,0.0,0.0,255,0.00,,,0.00,0,Wunderground v.1.15,2014-01-16 04:53:00,
2014-01-15 20:59:00,34.4,-99.9,20.00,SSW,212,0.0,0.0,255,0.00,,,0.00,0,Wunderground v.1.15,2014-01-16 04:59:00,
2014-01-15 21:03:00,35.2,-99.9,20.00,SSW,212,0.0,0.0,255,0.00,,,0.00,0,Wunderground v.1.15,2014-01-16 05:03:00,
2014-01-15 21:08:00,35.7,-99.9,20.00,SSW,212,2.0,2.0,255,0.00,,,0.00,0,Wunderground v.1.15,2014-01-16 05:08:00,
2014-01-15 21:13:00,35.6,-99.9,20.00,SSW,212,1.0,2.0,255,0.00,,,0.00,0,Wunderground v.1.15,2014-01-16 05:13:00,
2014-01-15 21:18:00,35.0,-99.9,20.00,SSW,212,2.0,2.0,255,0.00,,,0.00,0,Wunderground v.1.15,2014-01-16 05:18:00,
2014-01-15 21:28:00,35.3,-99.9,20.00,SW,227,3.0,3.0,255,0.00,,,0.00,0,Wunderground v.1.15,2014-01-16 05:28:00,
2014-01-15 21:38:00,35.7,-99.9,20.00,SW,227,0.0,0.0,255,0.00,,,0.00,0,Wunderground v.1.15,2014-01-16 05:38:00,
2014-01-15 21:48:00,34.5,-99.9,20.00,SW,227,0.0,0.0,255,0.00,,,0.00,0,Wunderground v.1.15,2014-01-16 05:48:00,
2014-01-15 21:59:00,33.5,-99.9,20.00,SW,227,0.0,0.0,255,0.00,,,0.00,0,Wunderground v.1.15,2014-01-16 05:59:00,
2014-01-15 22:08:00,32.9,-99.9,20.00,SW,227,0.0,0.0,255,0.00,,,0.00,0,Wunderground v.1.15,2014-01-16 06:08:00,
2014-01-15 22:18:00,33.5,-99.9,20.00,SW,227,3.0,3.0,255,0.00,,,0.00,0,Wunderground v.1.15,2014-01-16 06:18:00,
2014-01-15 22:23:00,33.1,-99.9,20.00,SW,227,1.0,3.0,255,0.00,,,0.00,0,Wunderground v.1.15,2014-01-16 06:23:00,
2014-01-15 22:33:00,33.6,-99.9,20.00,WSW,258,5.0,5.0,255,0.00,,,0.00,0,Wunderground v.1.15,2014-01-16 06:33:00,
2014-01-15 22:43:00,33.7,-99.9,20.00,West,270,1.0,4.0,255,0.00,,,0.00,0,Wunderground v.1.15,2014-01-16 06:43:00,
2014-01-15 22:53:00,33.4,-99.9,20.00,West,270,0.0,3.0,255,0.00,,,0.00,0,Wunderground v.1.15,2014-01-16 06:53:00,
2014-01-15 22:58:00,34.4,-99.9,20.00,West,270,2.0,2.0,255,0.00,,,0.00,0,Wunderground v.1.15,2014-01-16 06:58:00,
2014-01-15 23:08:00,34.1,-99.9,20.00,West,270,4.0,4.0,255,0.00,,,0.00,0,Wunderground v.1.15,2014-01-16 07:08:00,
2014-01-15 23:18:00,34.0,-99.9,20.00,West,270,2.0,2.0,255,0.00,,,0.00,0,Wunderground v.1.15,2014-01-16 07:18:00,
2014-01-15 23:28:00,33.8,-99.9,20.00,West,270,3.0,3.0,255,0.00,,,0.00,0,Wunderground v.1.15,2014-01-16 07:28:00,
2014-01-15 23:38:00,34.1,-99.9,20.00,West,270,3.0,3.0,255,0.00,,,0.00,0,Wunderground v.1.15,2014-01-16 07:38:00,
2014-01-15 23:48:00,34.1,-99.9,20.00,West,270,3.0,3.0,255,0.00,,,0.00,0,Wunderground v.1.15,2014-01-16 07:48:00,
2014-01-15 23:58:00,34.4,-99.9,20.00,West,270,2.0,2.0,255,0.00,,,0.00,0,Wunderground v.1.15,2014-01-16 07:58:00,